CAPE
0 0 0 0 0 0 0 0 0 0 0 0 0 0 0 0 0 0 0 0 0 0 0 0 0 0 0 0 0 0 0 1 0 0 0 0 2 3 1 2 0 0 0
0 0 0 0 0 0 0 0 0 0 0 0 0 0 0 0 0 0 0 0 0 0 0 0 0 0 0 0 0 0 0 1 0 0 0 0 1 0 0 0 1 2 3
0 0 0 0 0 0 0 0 0 0 0 0 0 0 0 0 0 0 0 0 0 0 0 0 0 0 0 0 0 0 0 0 1 0 0 1 2 1 1 1 1 2 1
0 0 0 0 0 0 0 0 0 0 0 0 0 0 0 0 0 0 0 0 0 0 0 0 0 0 0 0 0 0 0 1 0 1 0 0 0 0 0 0 1 2 2
0 0 0 0 0 0 0 0 0 0 0 0 0 0 0 0 0 0 0 0 0 0 0 0 0 0 0 0 0 0 0 0 0 0 1 0 0 0 0 0 0 0 0
0 0 0 0 0 0 0 0 0 0 0 0 0 0 0 0 0 0 0 0 0 0 0 0 0 0 0 0 0 0 0 0 1 1 1 1 0 0 0 0 0 1 3
0 0 0 0 0 0 0 0 0 0 0 0 0 0 0 0 0 0 0 0 0 0 0 0 1 0 0 0 0 0 0 0 1 1 1 1 0 0 0 0 0 0 2
0 0 0 0 0 0 0 0 0 0 0 0 0 0 0 0 0 0 0 0 0 0 0 0 0 0 0 0 0 0 0 0 0 0 0 0 0 3 3 0 0 0 0
0 0 0 0 0 0 0 0 0 0 0 0 0 0 0 0 0 0 0 1 1 0 0 0 0 0 0 0 0 0 0 1 1 1 0 8 11 5 4 1 1 0 0
0 0 0 0 0 0 0 0 0 0 0 0 0 0 0 0 0 0 0 0 0 0 0 0 0 0 0 2 1 0 0 0 0 0 1 0 0 0 0 0 1 0 1
0 0 0 0 0 0 0 0 0 0 0 0 0 0 0 0 0 0 0 0 0 0 0 0 0 0 1 3 3 2 0 2 0 0 0 0 0 0 0 0 0 0 0
0 0 0 0 0 0 0 0 0 0 0 0 0 0 0 0 0 0 0 0 0 0 0 0 0 2 3 1 2 9 6 4 0 0 0 0 0 1 0 0 0 0 0
0 0 0 0 0 0 0 0 0 0 0 0 0 0 0 0 0 0 0 0 0 0 0 0 3 2 2 0 0 6 3 0 0 0 0 0 0 0 0 0 0 0 0
0 0 0 0 0 0 0 0 0 0 0 0 0 0 0 0 0 0 0 0 0 0 0 1 2 0 0 0 0 0 0 0 0 0 0 0 0 0 0 0 0 0 0
0 0 0 0 0 0 0 0 0 0 0 0 0 0 0 0 0 0 1 0 0 0 0 0 0 0 0 0 0 0 0 0 0 0 0 0 0 0 0 0 0 0 0
0 0 0 0 0 0 0 0 0 0 0 0 0 0 0 0 0 0 0 0 0 0 0 0 0 0 0 0 0 0 0 0 0 0 0 0 0 0 0 0 0 0 0
0 0 0 0 0 0 0 0 0 0 0 0 0 0 0 0 0 1 0 0 0 0 0 0 0 0 0 0 0 0 0 0 0 0 0 0 0 0 0 0 0 0 0
0 0 0 0 0 0 0 0 0 0 0 0 0 0 0 0 0 0 0 0 0 0 0 0 0 0 0 0 0 0 0 0 0 0 0 0 0 0 0 0 0 0 0
0 0 0 0 0 0 0 0 0 0 0 0 0 0 0 0 0 0 0 0 0 0 0 0 0 0 0 0 0 0 0 0 0 0 0 0 0 0 0 0 0 0 0
0 0 0 0 0 0 0 0 0 0 0 0 0 0 0 0 0 0 0 0 0 0 0 0 0 0 0 0 0 0 0 0 0 0 0 0 0 0 0 0 0 0 0
0 0 0 0 0 0 0 0 0 0 0 0 0 0 0 0 0 0 0 0 0 0 0 0 0 0 0 0 0 0 0 0 0 0 0 0 0 0 0 0 0 0 0
0 0 0 0 0 0 0 0 0 0 0 0 0 0 0 0 0 0 0 0 0 0 0 0 0 0 0 0 0 0 0 0 0 0 0 0 0 0 0 0 0 0 0
0 0 0 0 0 0 0 0 0 0 0 0 0 0 0 0 0 0 0 0 0 0 0 0 0 0 0 0 0 0 0 0 0 0 0 0 0 0 0 0 0 0 0
0 0 0 0 0 0 0 0 0 0 0 0 0 0 0 0 0 0 0 0 0 0 0 0 0 0 0 0 0 0 0 0 0 0 0 0 0 0 0 0 0 0 0
0 0 0 0 0 0 0 0 0 0 0 0 0 0 0 0 0 0 0 0 0 0 0 0 0 0 0 0 0 0 0 0 0 0 0 0 0 0 0 0 0 0 0
0 0 0 0 0 0 0 0 0 0 0 0 0 0 0 0 0 0 0 0 0 0 0 0 0 0 0 0 0 0 0 0 0 0 0 0 0 0 0 0 0 0 0
CIN
0 0 0 0 0 0 0 0 0 0 0 0 0 0 0 0 0 0 0 0 0 0 0 0 0 0 0 0 0 0 0 -2 0 0 0 0 -2 -3 -3 -5 -3 0 -2
0 0 0 0 0 0 0 0 0 0 0 0 0 0 0 0 0 0 0 0 0 0 0 0 0 0 0 0 0 0 0 0 0 0 0 -1 -1 -1 -2 -2 -1 -4 -3
0 0 0 0 0 0 0 0 0 0 0 0 0 0 0 0 0 0 0 0 0 0 0 0 0 0 0 0 0 0 0 0 0 0 0 0 0 -2 -1 -2 -3 -4 -3
0 0 0 0 0 0 0 0 0 0 0 0 0 0 0 0 0 0 0 0 0 0 0 0 0 0 0 0 0 0 0 0 0 0 0 0 0 -1 -1 -2 -1 -1 -2
0 0 0 0 0 0 0 0 0 0 0 0 0 0 0 0 0 0 0 0 0 0 0 0 0 0 -1 0 0 0 0 0 0 0 0 0 0 0 0 -1 0 -7 0
0 0 0 0 0 0 0 0 0 0 0 0 0 0 0 0 0 0 0 0 0 0 0 0 0 0 0 0 0 0 0 -1 0 0 0 0 0 -1 -2 0 0 0 0
0 0 0 0 0 0 0 0 0 0 0 0 0 0 0 0 0 0 0 0 0 0 0 0 0 0 0 0 -1 0 0 -1 0 -1 0 0 0 0 0 0 0 0 0
0 0 0 0 0 0 0 0 0 0 0 0 0 0 0 0 0 0 0 0 0 0 0 -1 0 0 0 0 0 0 0 0 0 0 -2 -1 0 -2 -2 -1 0 0 0
0 0 0 0 0 0 0 0 0 0 0 0 0 0 0 0 0 0 0 0 0 0 0 0 0 0 0 -2 -1 0 -2 -2 -6 -2 -1 0 0 0 -1 -1 0 0 0
0 0 0 0 0 0 0 0 0 0 0 0 0 0 0 0 0 0 0 0 0 -1 0 0 -1 0 0 -2 -1 -2 0 0 -1 0 -2 0 -3 -5 -6 -1 0 0 0
0 0 0 0 0 0 0 0 0 0 0 0 0 0 0 0 0 0 0 -1 -1 -1 0 0 0 -4 -2 0 0 -1 -2 -2 -2 0 0 -3 0 -3 -3 0 0 0 0
0 0 0 0 0 0 0 0 0 0 0 0 0 0 0 0 0 0 0 0 0 0 -2 0 0 -2 -1 -1 -1 0 0 -1 0 0 0 0 0 -4 -4 0 0 -2 0
0 0 0 0 0 0 0 0 0 0 0 0 0 0 0 0 0 0 0 0 -1 -1 0 -1 0 -1 0 0 0 -1 -3 0 0 0 0 0 -4 -1 0 0 0 0 0
0 0 0 0 0 0 0 0 0 0 0 0 0 0 0 0 0 0 0 0 0 0 -1 -3 -2 -1 0 0 0 -12 0 0 0 0 0 0 -2 0 0 0 0 0 0
0 0 0 0 0 0 0 0 0 0 0 0 0 0 0 0 0 0 0 0 -2 -2 0 0 -1 0 0 0 0 0 0 0 0 0 0 0 0 -3 0 0 0 0 0
0 0 0 0 0 0 0 0 0 0 0 0 0 0 -1 0 0 0 -2 0 0 0 0 0 0 0 0 0 0 0 0 0 0 0 0 0 0 0 0 0 0 0 0
0 0 0 0 0 0 0 0 0 0 0 0 0 0 0 0 0 0 -1 0 0 0 0 0 0 0 0 0 0 0 0 0 0 0 0 0 0 0 0 0 0 0 0
0 0 0 0 0 0 0 0 0 0 0 0 0 0 0 0 0 0 0 0 0 0 0 0 0 0 0 0 0 0 0 0 0 0 0 0 0 0 0 0 0 0 0
0 0 0 0 0 0 0 0 0 0 0 0 0 0 0 0 0 0 0 0 0 0 0 0 0 0 0 0 0 0 0 0 0 0 0 0 0 0 0 0 0 0 0
0 0 0 0 0 0 0 0 0 0 0 0 0 0 0 0 0 0 0 0 0 0 0 0 0 0 0 0 0 0 0 0 0 0 0 0 0 0 0 0 0 0 0
0 0 0 0 0 0 0 0 0 0 0 0 0 0 0 0 0 0 0 0 0 0 0 0 0 0 0 0 0 0 0 0 0 0 0 0 0 0 0 0 0 0 0
0 0 0 0 0 0 0 0 0 0 0 0 0 0 0 0 0 0 0 0 0 0 0 0 0 0 0 0 0 0 0 0 0 0 0 0 0 0 0 0 0 0 0
0 0 0 0 0 0 0 0 0 0 0 0 0 0 0 0 0 0 0 0 0 0 0 0 0 0 0 0 0 0 0 0 0 0 0 0 0 0 0 0 0 0 0
0 0 0 0 0 0 0 0 0 0 0 0 0 0 0 0 0 0 0 0 0 0 0 0 0 0 0 0 0 0 0 0 0 0 0 0 0 0 0 0 0 0 0
0 0 0 0 0 0 0 0 0 0 0 0 0 0 0 0 0 0 0 0 0 0 0 0 0 0 0 0 0 0 0 0 0 0 0 0 0 0 0 0 0 0 0
0 0 0 0 0 0 0 0 0 0 0 0 0 0 0 0 0 0 0 0 0 0 0 0 0 0 0 0 0 0 0 0 0 0 0 0 0 0 0 0 0 0 0
Wind_Speed
8 8 8 9 10 10 12 14 14 14 14 14 14 14 15 16 17 18 20 22 24 26 28 29 30 31 33 33 34 34 35 36 41 44 42 43 44 46 45 44 46 46 45
8 8 9 10 11 12 12 13 13 13 13 13 13 14 15 17 18 19 21 24 26 28 30 31 32 33 34 34 34 35 36 37 41 49 47 47 47 47 48 50 49 47 48
8 9 10 11 11 11 12 12 12 12 13 13 14 15 16 18 20 22 24 26 28 29 31 33 34 34 35 35 36 37 39 40 42 46 52 47 49 49 51 50 50 51 49
9 10 10 10 10 11 12 12 12 13 13 14 15 16 18 20 22 24 26 28 30 31 32 33 34 35 36 38 39 39 41 44 45 48 51 52 51 50 51 56 59 53 57
10 11 11 11 11 11 12 12 13 13 14 15 17 19 21 23 25 27 29 31 32 33 33 34 35 35 36 37 39 41 43 45 48 50 52 54 55 56 56 55 57 58 56
12 12 11 11 12 12 12 12 13 15 17 18 20 22 24 26 27 29 30 31 33 35 36 36 36 37 38 39 40 41 42 46 49 50 52 54 55 53 54 53 54 56 60
11 11 11 11 11 12 12 13 15 17 19 21 23 25 26 27 29 30 31 32 34 35 36 38 39 39 40 41 42 42 42 42 43 46 51 50 52 50 51 53 52 52 54
12 11 11 11 11 12 13 15 17 18 20 22 24 26 28 29 30 31 31 33 35 36 37 39 39 40 41 42 43 44 43 42 43 42 43 46 46 46 46 48 50 50 47
12 11 11 11 12 13 14 16 18 20 22 24 26 29 30 30 30 32 33 35 37 38 37 37 39 40 42 42 44 47 47 45 41 42 42 43 43 44 42 44 45 46 48
10 9 10 11 12 13 15 16 19 21 24 26 28 28 29 30 31 33 34 36 38 38 37 38 39 40 42 43 45 47 50 48 47 46 43 42 40 41 39 38 40 44 43
9 9 10 12 13 15 16 18 20 22 25 26 27 28 29 30 32 33 34 35 37 39 40 42 39 40 42 44 44 44 45 46 46 45 44 42 40 38 37 36 35 36 37
10 11 13 14 15 17 19 21 23 24 24 26 27 28 29 30 31 32 34 35 36 39 42 42 41 41 45 45 45 42 44 44 44 43 43 41 40 38 37 36 35 34 30
10 11 13 14 16 19 21 22 22 23 25 28 29 30 31 30 31 32 34 36 36 39 39 40 43 45 46 45 43 41 41 41 41 42 41 39 37 37 36 35 36 33 30
11 13 14 16 19 20 19 21 23 25 27 29 30 31 31 31 33 34 35 35 37 39 40 41 43 45 45 44 43 40 38 38 38 38 37 36 35 34 35 33 35 34 31
12 14 16 18 18 18 19 21 24 24 26 29 30 30 32 34 34 35 36 37 39 41 43 43 45 46 46 47 45 41 38 37 37 35 35 35 34 34 34 33 32 31 29
17 19 18 18 19 20 21 23 23 25 26 26 26 28 29 30 32 35 37 38 38 41 42 44 46 46 47 47 46 44 40 39 36 35 33 33 33 34 33 33 30 29 30
17 16 17 18 19 20 22 23 26 26 24 26 27 28 28 30 33 34 35 37 39 39 41 43 45 45 46 45 44 42 40 37 34 32 33 33 32 32 32 32 31 29 29
16 17 18 18 19 21 23 24 25 26 28 28 27 28 28 31 32 34 36 36 39 39 40 42 43 43 43 43 42 40 37 34 32 32 32 32 32 32 32 31 30 29 28
17 18 19 20 22 22 23 24 25 26 26 27 27 27 29 31 31 34 35 37 39 40 40 41 41 41 41 41 39 35 33 31 31 32 31 32 33 33 32 31 31 29 28
20 21 22 23 23 24 24 25 25 26 27 28 28 29 30 30 35 36 36 36 37 38 38 39 39 38 38 38 36 32 31 31 31 31 31 32 32 32 32 32 31 30 30
23 23 24 25 25 25 25 26 26 26 28 28 29 29 31 32 35 35 35 36 36 36 36 36 36 36 35 35 33 30 30 30 30 31 31 31 32 32 32 31 31 30 29
24 24 24 25 25 26 26 26 27 28 28 29 30 30 32 32 33 34 35 35 34 33 33 34 34 33 33 32 29 29 30 31 30 30 31 31 30 31 31 31 31 31 30
25 25 26 26 26 27 27 27 27 28 29 30 31 32 32 33 33 34 34 34 33 33 32 31 32 32 30 28 27 27 29 29 28 29 30 30 30 30 30 31 31 31 30
25 26 27 27 27 27 28 28 28 29 30 31 32 32 33 33 33 33 33 33 33 32 32 32 31 30 29 27 27 26 26 25 24 25 28 29 30 30 30 30 30 30 30
27 27 28 28 28 28 29 29 30 30 31 31 32 32 33 33 33 32 32 32 32 32 32 31 30 29 28 27 28 28 28 26 24 21 24 25 26 28 29 29 29 29 28
28 29 29 28 29 29 30 31 31 31 32 32 32 32 32 33 32 32 32 32 32 33 32 31 30 29 27 28 29 30 31 29 26 22 21 21 21 21 23 26 30 30 29
Wind_Direction
323 327 327 328 328 330 329 330 333 336 337 338 340 342 343 342 345 341 339 337 334 333 332 330 329 329 328 327 327 326 324 322 317 319 322 323 323 322 322 321 320 319 318
325 333 333 334 333 333 334 337 340 342 346 349 352 348 347 346 346 343 339 336 334 331 331 330 329 328 328 328 328 326 324 323 320 317 320 322 322 322 320 319 319 318 317
317 325 326 330 333 338 339 343 347 350 349 354 350 347 345 343 340 339 337 335 333 331 330 329 328 328 327 328 327 325 323 322 321 319 317 321 320 321 320 320 319 318 318
315 320 324 330 335 338 342 343 344 344 347 346 346 344 341 338 336 335 334 332 332 331 330 329 329 328 327 326 326 325 324 321 321 319 318 319 320 322 321 319 317 318 317
310 315 319 327 332 334 337 339 341 342 342 341 339 338 336 334 333 332 331 331 330 329 330 330 329 329 329 328 326 325 324 322 320 319 318 318 319 319 319 319 317 318 318
299 306 314 319 322 326 331 333 336 336 336 336 334 333 332 331 331 331 331 331 330 329 328 330 330 330 328 328 327 326 325 323 321 319 319 318 318 319 319 319 319 319 318
295 303 309 312 316 323 327 329 329 330 332 332 331 331 330 330 331 331 332 331 330 329 329 329 328 329 329 328 327 327 327 326 324 322 320 320 320 322 321 320 319 319 318
290 298 304 309 314 319 323 325 326 327 328 328 329 329 329 330 331 331 331 331 330 329 329 329 329 329 330 329 328 327 327 327 326 324 322 322 322 323 323 322 321 320 321
286 290 297 304 309 314 318 321 324 325 327 327 327 327 327 329 330 330 331 330 329 329 330 331 330 330 330 329 327 326 325 326 328 327 326 325 326 326 326 325 324 324 323
278 287 299 306 310 314 318 321 323 324 324 325 325 326 327 327 329 330 331 330 329 330 332 332 332 331 330 330 328 326 325 327 327 328 328 328 329 328 329 330 330 325 325
281 291 299 305 308 312 315 319 321 322 323 324 325 327 328 329 330 330 331 331 331 330 331 331 332 332 332 331 330 328 327 328 328 328 328 329 330 331 332 332 332 330 328
283 292 299 304 309 312 315 318 320 321 323 324 325 327 329 331 332 333 333 333 332 331 330 331 333 333 332 331 330 329 329 330 329 329 329 330 331 332 333 333 333 332 331
284 291 299 305 309 313 314 316 318 321 321 322 323 324 326 330 332 333 332 332 334 331 334 334 334 332 332 332 331 330 331 331 331 330 330 331 332 333 333 334 334 335 335
283 292 299 304 308 312 315 318 319 319 320 321 322 323 326 328 329 331 333 334 334 333 333 333 334 334 334 333 333 332 331 332 332 331 331 331 333 334 334 337 336 337 337
287 294 299 302 305 309 313 316 317 320 321 320 322 323 324 324 328 330 330 332 332 332 333 333 334 336 335 336 335 334 333 332 331 331 331 331 333 335 336 338 338 337 339
289 293 296 299 303 308 311 314 320 322 322 324 325 325 326 328 329 329 330 332 334 334 334 334 335 335 335 335 334 333 332 331 331 330 331 331 331 332 334 335 339 338 335
289 291 295 299 303 306 310 312 313 319 323 325 326 325 326 328 328 330 331 333 335 336 335 335 335 336 336 336 335 335 333 333 333 333 331 330 330 331 331 332 335 336 332
290 292 295 297 301 304 307 310 314 315 316 319 323 325 326 328 329 332 333 334 334 336 336 336 336 337 337 336 336 335 335 335 334 332 331 330 330 329 329 332 333 331 329
289 292 294 297 301 303 306 308 311 314 315 317 320 323 326 328 330 332 334 333 333 334 336 337 337 338 338 338 337 337 336 336 334 332 331 328 326 324 325 327 328 330 324
290 293 294 296 298 301 303 305 308 311 313 315 317 320 324 327 327 329 332 333 333 334 336 337 338 339 338 340 340 339 337 335 334 333 331 328 325 323 324 324 326 323 321
289 291 293 296 297 298 301 302 306 308 311 313 316 320 323 325 326 328 330 331 332 334 336 336 337 338 339 341 341 340 336 333 332 331 329 327 325 322 320 321 320 320 320
288 290 291 292 294 296 299 301 304 306 309 312 315 319 322 324 326 327 329 330 332 334 335 335 336 337 338 338 339 337 334 331 330 330 328 328 327 324 322 319 318 317 317
286 288 289 291 293 295 297 299 302 305 307 310 313 316 319 322 324 326 327 330 332 333 334 334 335 335 336 337 336 334 332 332 331 328 326 325 325 324 324 319 317 315 316
284 287 288 290 292 294 295 298 301 303 306 309 312 315 317 320 322 324 327 329 330 331 333 332 334 334 334 335 333 331 330 333 334 330 323 322 322 323 323 322 319 315 314
283 285 287 289 291 292 295 297 299 302 304 307 310 313 316 318 320 322 325 327 328 329 330 331 332 332 332 331 329 327 326 328 330 333 327 323 322 322 321 319 318 316 316
281 284 287 289 290 292 294 296 298 301 303 306 309 312 314 316 318 320 322 324 326 327 328 329 329 329 329 327 326 324 322 323 325 327 326 325 324 325 325 320 314 313 314